Location: Casteau
(50.5142°N, 4.0161°E)
Time: 05:41:42
(UTC+00:00)

Vanguard 1 Rocket - Pass Details

Date: 27 July 2021
Orbit: 650 x 4226 km, 34.3° (Epoch: 21 September)

Event Time Altitude Azimuth Distance (km) Brightness Sun altitude
Rises 07:59:46 0° 185° (S) 7,885 12.3 35.0°
Reaches altitude 10° 08:14:36 10° 149° (SSE) 5,627 12.2 37.3°
Maximum altitude 08:15:12 10° 147° (SSE) 5,564 12.2 37.4°
Drops below altitude 10° 08:15:46 10° 145° (SE) 5,505 12.2 37.5°
Sets 08:25:57 0° 105° (ESE) 5,302 12.2 39.0°
